Location: Possagno
(45.8500°N, 11.8667°E)
Time: 16:01:12
(UTC+00:00)

Envisat - Pass Details

Date: 06 August 2021
Orbit: 764 x 766 km, 98.2° (Epoch: 17 September)

Event Time Altitude Azimuth Distance (km) Brightness Sun altitude
Rises 03:17:35 0° 28° (NNE) 3,243 7.5 -7.5°
Reaches altitude 10° 03:20:40 10° 48° (NE) 2,310 7.2 -7.0°
Maximum altitude 03:24:03 18° 90° (E) 1,831 5.9 -6.5°
Drops below altitude 10° 03:27:24 10° 132° (SE) 2,298 5.7 -6.0°
Sets 03:30:27 0° 151° (SSE) 3,218 6.2 -5.6°
